Погода Нагорный

Погода Нагорный : погода сейчас, прогноз погоды и архив. Всё, что Вы хотите узнать о погоде Нагорный!

Хотите узнать прогноз погоды Нагорный? Тогда Вам сюда: Погода Нагорный

Поиск расширенной информации на нашем сайте:

Другие новости

Новости СМИ2

Главная страница сайта

Новости сайта

03.07.2017

Напоминаем, что на нашем специализированном сайте Метеоцентр.Азия вы можете получить высокодетализированные автоматические прогнозы погоды по пунктам России, СНГ и мира в авиационном формате (включающие направление и скорость ветра, видимость, явления погоды, количество и форму облачности, нижнюю и верхнюю границу облачности).

Рекомендуем: Где купить мебель ресторанов.

Погода Нагорный - сегодня

Время (UTC), дата Ветер
(°,м/с) 
Видим.   Явления Облачность Т
(°С)
Тd
(°С)
f(%) Тe
(°С)
Pmin
(гПа)
dP
(гПа)
Po
(мм)
O2
(г/м3)
Тmin Tmax R s Состояние
почвы
03 20.10.17 010 (С) 20000 м    3/0 средняя, верхняя 
[Ac cast|Cc]
-9.3 -12.3 79 -16  1020.8  0.6  686  287           
06 20.10.17 350 (С) 20000 м    3/0 верхняя 
[Cc]
-9.3 -13.3 73 -16  1021.4  0.6  686  287           
09 20.10.17 010 (С) 20000 м    3/0 
-11.3 -14.1 80 -17  1023.4  0.9  687  290           
12 20.10.17 350 (С) 20000 м    ясно 
-13.1 -15.8 80 -20  1024.7  0.5  687  292    -8.1       
15 20.10.17 010 (С) 20000 м    ясно 
-14.1 -16.8 80 -20  1025.7  0.5  688  293           
18 20.10.17 010 (С) 20000 м    ясно 
-14.3 -17 80 -20  1026.2  0.3  688  294           
21 20.10.17 040 (СВ) 20000 м    ясно 600 м 
-15.6 -18.3 80 -21  1025  -1.5  687  295           
00 21.10.17 360 (С) 20000 м    ясно 
-16.3 -18.9 80 -23  1024.6  0.6  686  295  -16.7      <0.5  сухой снег
50-90% 
03 21.10.17 010 (С) 20000 м    ясно 
-14.7 -18.1 75 -22  1024  686  294           
06 21.10.17 340 (С) 20000 м    ясно 
-13.1 -16.6 75 -18  1023.6  0.4  686  292           
09 21.10.17 350 (С) 20000 м    ясно 
-14.1 -17.6 75 -18  1025.6  1.3  687  293           
12 21.10.17 080 (В) 20000 м    ясно 
-14.9 -17.6 80 -17  1026.7  0.7  688  294    -12.1       
15 21.10.17 160 (Ю) 20000 м    ясно 
-16.5 -19.9 75 -19  1028.1  0.6  688  297           
18 21.10.17 110 (В) 20000 м    ясно 
-17.1 -19.7 80 -20  1028.7  0.3  689  297           
21 21.10.17 180 (Ю) 20000 м    ясно 
-18.6 -21.2 80 -19  1029.9  0.4  689  299           
00 22.10.17 120 (ЮВ) 20000 м    ясно 
-19.1 -22.4 75 -19  1030.6  0.5  689  300  -19.3      <0.5  сухой снег
50-90% 
03 22.10.17 090 (В) 20000 м    ясно 
-6.9 -14 57 -7  1024.8  -0.6  689  286           
06 22.10.17 тихо ()   20000 м    ясно 
-4.3 -13.3 49 -4  1022.1  -1.4  688  283           
09 22.10.17 230 (ЮЗ) 20000 м    3/0 средняя 
[Ac lent]
-5.7 -14 52 -7  1021.5  -0.9  687  284           
12 22.10.17 240 (ЮЗ) 20000 м    3/0 средняя 
[Ac lent]
-9.7 -15.5 63 -10  1022.9  -0.4  687  288    -3.6       
15 22.10.17 230 (ЮЗ) 20000 м    3/0 средняя 
[Ac lent]
-9.1 -14.7 64 -9  1021.1  -1.4  686  287           
18 22.10.17 250 (З) 20000 м    3/0 средняя 
[Ac lent]
-11.6 -15.9 70 -11  1021.9  -0.1  686  290           
21 22.10.17 250 (З) 20000 м    3/0 средняя 
[Ac lent]
-12.6 -16.1 75 -13  1022.4  686  291           
00 23.10.17 260 (З) 20000 м    9/9 600 м 
[Sc]
-10.9 -12.9 85 -11  1022.1  0.3  686  289  -13.2      <0.5  сухой снег
50-90% 
03 23.10.17 090 (В) 20000 м    4/3 600 м средняя, верхняя 
[St|Ac trans|Ci fib]
-2.4 -8.4 63 -2  1017.4  -1  685  279           
Время (UTC), дата Ветер
(°,м/с) 
Видим.   Явления Облачность Т
(°С)
Тd
(°С)
f(%) Тe
(°С)
Pmin
(гПа)
dP
(гПа)
Po
(мм)
O2
(г/м3)
Тmin Tmax R s Состояние
почвы

Для получения пояснительной информации подведите курсор к названию столбца.

ПОГОДА Нагорный - архив

Всё, что Вы хотите узнать о погоде Нагорный - удобно и подробно!

Выберите нужную дату (начиная с 1 января 2015* года) и нажмите кнопку "Найти".
Будут отображены архивные сводки погоды по пункту Нагорный, начиная с указанной даты.


Отображать данные в формате CSV (для использования в таблицах Excel)


Внимание! Наш архив погоды предназначен исключительно для личного некоммерческого использования в познавательных целях. Если Вам необходимы официальные справки о состоянии погоды (для производственных, юридических, коммерческих и т.п. целей), обращайтесь в органы Росгидромета.

*Примечание: данная дата относится к архиву по метеостанциям СССР (Россия, СНГ, Балтия).
Архив по метеостанциям Зарубежной Европы и Азии (кроме Китая) хранится 10 дней, по другим регионам земного шара (Китай, Африка, Америка, Австралия, Океания) - 1 день.

Нагорный - район местоположения метеостанции


Название, широта, долгота, высота метеостанции:
Нагорный 56°ш. 124.9°д. 861 м над ур. моря [Российская Федерация]

Дополнительная информация

В oтличие oт бoльшинства пoгoдных сайтoв мы публикуем пoдрoбную метеoинфoрмацию в детальнoм прoфессиoнальнoм фoрмате.

Характеристики температуры и влажнoсти вoздуха измеряются на высoте 2 м в тени вдали oт зданий и деревьев.
Скoрoсть ветра измеряется на высoте 10 м (на урoвне рoста челoвека скoрoсть ветра ниже в 1.5-2 раза). Если метеoстанция нахoдится в гoрoде или в лесу, тo скoрoсть ветра занижена на 2-4 м/с пo сравнению с oткрытым местoм. Скoрoсть ветра над акватoриями крупных рек и oзёр, а также на вершинах хoлмoв на 2-5 м/с выше, чем в oбычных услoвиях.
Атмoсфернoе давление в разных тoчках местнoсти мoжет значительнo oтличаться oт давления на метеoстанции, в зависимoсти oт услoвий рельефа (при пoдъёме на 10 м давление пoнижается примернo на 1 мм рт.ст.).